Flag for Brazil Weather past 2 weeks in Foz do Iguaçu, Paraná, Brazil

Now
73 °F

Passing clouds.


Feels Like: 70 °F
Forecast: 73 / 89 °F
Wind: 5 mph from East

Location: Foz Do Iguacu Aeroporto

Current Time: Jan 28, 2015 at 4:55:10 AM

Latest Report: Jan 28, 2015 at 4:00 AM


Visibility: N/A

Pressure: 29.83 "Hg

Humidity: 94%

Dew point: 72 °F

Location of Foz do IguaçuLocation

Historic Weather in Foz do Iguaçu — Graph

°F

Foz do Iguaçu temperature yesterday

Maximum temperature yesterday: 86 °F (at 3:00 PM)
Minimum temperature yesterday: 73 °F (at 4:00 AM)
Average temperature yesterday: 79 °F

Past Weeks' High & Low Weather Summary

 TemperatureHumidityPressure
High97 °F (Jan 13, 4:00 PM)100% (Jan 14, 8:00 PM)30.04 "Hg (Jan 14, 8:00 PM)
Low36 °F (Jan 14, 8:00 PM)39% (Jan 19, 6:00 PM)29.36 "Hg (Jan 22, 2:00 AM)
Average79 °F77%29.91 "Hg
* Reported Jan 13 3:00 AM — Jan 28 3:00 AM, Foz do Iguaçu, Weather by CustomWeather, © 2014

Note: Actual official high and low records may vary slightly from our data, if they occured in-between our weather recording intervals... More about our weather records

Advertising

Foz do Iguaçu weather history for previous 24 hours

 ConditionsComfort  
Time TempWeatherWind HumidityBarometerVisibility
3:00 AM
Jan 28
73 °FClear.No wind94%29.86 "Hg10 mi
2:00 AM77 °FClear.6 mph83%29.95 "Hg10 mi
1:00 AM75 °FClear.2 mph89%29.86 "Hg10 mi
12:00 AM77 °FClear.8 mph83%29.86 "Hg10 mi
11:00 PM
Jan 27
75 °FPassing clouds.7 mph94%29.86 "HgN/A
10:00 PM75 °FPassing clouds.2 mph89%29.86 "HgN/A
9:00 PM77 °FPassing clouds.2 mph83%29.86 "HgN/A
8:00 PM81 °FScattered clouds.3 mph79%29.83 "HgN/A
7:00 PM82 °FScattered clouds.2 mph74%29.83 "HgN/A
6:00 PM82 °FScattered clouds.3 mph70%29.83 "HgN/A
5:00 PM82 °FScattered clouds.7 mph70%29.83 "HgN/A
4:00 PM84 °FBroken clouds.8 mph66%29.86 "HgN/A
3:00 PM86 °FBroken clouds.10 mph62%29.89 "HgN/A
2:00 PM82 °FScattered clouds.13 mph70%29.92 "HgN/A
1:00 PM82 °FPartly sunny.10 mph70%29.95 "Hg10 mi
12:00 PM82 °FPartly sunny.12 mph70%29.95 "HgN/A
11:00 AM81 °FSunny.12 mph70%29.95 "Hg10 mi
10:00 AM79 °FSunny.7 mph74%29.95 "Hg10 mi
9:00 AM75 °FSunny.5 mph89%29.92 "Hg10 mi
8:00 AM73 °FSunny.5 mph89%29.89 "Hg10 mi
7:00 AM73 °FClear.6 mph89%29.89 "Hg10 mi
6:00 AM73 °FClear.3 mph94%29.86 "Hg10 mi
5:00 AM73 °FClear.No wind89%29.86 "Hg10 mi
4:00 AM73 °FClear.No wind94%29.83 "Hg10 mi
Weather by CustomWeather, © 2014

See weather overviewHow to use our weather pages